Location: Artiguedieu
(43.5000°N, 0.5454°E)
Time: 20:54:04
(UTC+00:00)

Transit 2A - Pass Details

Date: 31 July 2021
Orbit: 594 x 964 km, 66.7° (Epoch: 28 September)

Event Time Altitude Azimuth Distance (km) Brightness Sun altitude
Rises 05:45:08 0° 188° (S) 2,818 8.7 9.1°
Reaches altitude 10° 05:47:26 10° 180° (S) 1,931 8.0 9.5°
Maximum altitude 05:51:24 37° 113° (ESE) 968 7.4 10.2°
Drops below altitude 10° 05:55:35 10° 46° (NE) 2,047 9.5 10.9°
Sets 05:58:05 0° 39° (NE) 3,013 10.0 11.3°
